Location: Bjelajci
(45.0103°N, 16.1758°E)
Time: 04:28:16
(UTC+00:00)

ATLAS 5 CENTAUR R/B - Pass Details

Date: 14 July 2020
Orbit: 534 x 1124 km, 63.4° (Epoch: 06 August)

Event Time Altitude Azimuth Distance (km) Brightness Sun altitude
Rises 01:35:43 0° 322° (NW) 3,279 5.5 -14.6°
Reaches altitude 10° 01:37:59 10° 324° (NW) 2,432 4.8 -14.4°
Maximum altitude 01:43:43 80° 52° (NE) 945 2.5 -13.8°
Drops below altitude 10° 01:50:23 10° 139° (SE) 2,817 4.8 -13.0°
Sets 01:53:10 0° 141° (SE) 3,831 5.5 -12.7°
